Погода в Валуйки

Погода в Валуйки : погода сейчас, прогноз погоды и архив. Всё, что Вы хотите узнать о погоде в Валуйки!

Хотите узнать прогноз погоды в Валуйки? Тогда Вам сюда: Погода в Валуйки

Поиск расширенной информации на нашем сайте:

Другие новости

Новости СМИ2

Главная страница сайта

Новости сайта

03.07.2017

Напоминаем, что на нашем специализированном сайте Метеоцентр.Азия вы можете получить высокодетализированные автоматические прогнозы погоды по пунктам России, СНГ и мира в авиационном формате (включающие направление и скорость ветра, видимость, явления погоды, количество и форму облачности, нижнюю и верхнюю границу облачности).


Погода в Валуйки - сегодня

Время (UTC), дата Ветер
(°,м/с) 
Видим.   Явления Облачность Т
(°С)
Тd
(°С)
f(%) Тe
(°С)
Pmin
(гПа)
dP
(гПа)
Po
(мм)
O2
(г/м3)
Тmin Tmax R s Состояние
почвы
09 20.01.18 180 (Ю) 10 км    10/10 360 м 
[St]
-0.8 -2.1 91 -2  1015  0.5  751  304           
12 20.01.18 190 (Ю) 20000 м    10/10 450 м 
[St]
+0.4 -1.6 86 1014.9  751  302           
15 20.01.18 140 (ЮВ) 10 км  слаб. снег  10/10 330 м 
[Frnb|Ns]
-0.5 -1.4 94 -1  1014.8  -0.1  751  303      0.2     
18 20.01.18 130 (ЮВ) 10 км  слаб. снег  10/10 360 м 
[Frnb|Ns]
-1.1 -1.8 95 -2  1013.7  -1.2  750  303    +0.7  0.5     
21 20.01.18 090 (В) 10 км  слаб. снег  10/10 300 м 
[Frnb|Ns]
-1.4 -1.9 96 -2  1012  -1.7  748  303           
00 21.01.18 090 (В) 10 км  слаб. снег  10/10 300 м 
[Frnb|Ns]
-1.1 -1.5 97 -2  1009.4  -2.5  746  302           
03 21.01.18 160 (Ю) 10 км  в посл. час снег  10/10 360 м 
[St]
+0.7 +0.4 98 +1  1007.2  -2.1  745  299  -1.5       
06 21.01.18 тихо ()   4000 м  снег  10/10 210 м 
[Frnb|Ns]
+0.5 +0.2 98 +1  1005.8  -1.4  744  299  -1.5    12  14  равномерный
мокрый или
старый снег
100% 
09 21.01.18 тихо ()   4000 м  слаб. снег  10/10 240 м 
[Frnb|Ns]
-0.7 -1.1 97 -1  1004.8  -1.1  743  300           
12 21.01.18 300 (СЗ) 4000 м  слаб. снег  10/10 360 м 
[Frnb|Ns]
-2.2 -3.4 91 -5  1006  1.2  744  303           
15 21.01.18 300 (СЗ) 3{10}  10 км  {снег}  3/0 верхняя 
[Ci fib]
-3.6 -6.1 83 -6  1009.7  3.6  747  306      14     
18 21.01.18 280 (З) 10 км  {снег}  ясно 
-8.7 -10.6 86 -8  1014.9  4.8  750  313    +0.5  11     
21 21.01.18 310 (СЗ) 10 км    ясно 
-10.5 -11.8 90 -10  1017.3  2.2  752  316           
00 22.01.18 310 (СЗ) 10 км    ясно 
-10.5 -11.8 90 -10  1017.3  752  316           
03 22.01.18 300 (СЗ) 4000 м  дымка  10/0 средняя 
[As op]
-11.1 -12.4 90 -11  1018.8  1.5  753  317  -11.5         
06 22.01.18 040 (СВ) 4000 м  дымка  10/10 240 м 
[St]
-9.2 -10.3 92 -9  1018.9  0.2  753  315  -11.5      20  равномерный
сухой снег
100% 
09 22.01.18 050 (СВ) 10 км    10/10 750 м 
[Sc]
-7.7 -9.1 90 -9  1019.4  0.6  754  313           
12 22.01.18 030 (СВ) 10 км    10/0 средняя 
[As op]
-6 -7.9 86 -7  1018.9  -0.3  753  311           
15 22.01.18 040 (СВ) 10 км    10/0 средняя 
[As op]
-6.1 -7.6 89 -8  1018.5  -0.4  753  311           
18 22.01.18 030 (СВ) 10 км  слаб. снег  10/10 330 м 
[Frnb|Ns]
-5.6 -6.7 92 -8  1018.1  -0.4  753  310    -5.6  0.0     
21 22.01.18 030 (СВ) 4000 м  слаб. снег  10/10 270 м 
[Frnb|Ns]
-4.9 -5.9 93 -8  1017.4  -0.7  752  309           
00 23.01.18 030 (СВ) 4000 м  слаб. снег  10/10 270 м 
[Frnb|Ns]
-4.7 -5.7 93 -7  1017.4  752  309           
03 23.01.18 040 (СВ) 6-11{13}  4000 м  слаб. снег  10/10 270 м 
[Frnb|Ns]
-5 -6 93 -9  1015.3  -2.1  751  309  -5.6       
06 23.01.18 040 (СВ) 4{12}  4000 м  слаб. снег  10/10 240 м 
[Frnb|Ns]
-5.4 -6.4 93 -9  1015.3  751  309  -5.6    15  35  равномерный
сухой снег
100% 
09 23.01.18 040 (СВ) 5{11}  4000 м  слаб. снег  10/10 270 м 
[Frnb|Ns]
-5.3 -6.7 90 -9  1016  0.7  751  309           
Время (UTC), дата Ветер
(°,м/с) 
Видим.   Явления Облачность Т
(°С)
Тd
(°С)
f(%) Тe
(°С)
Pmin
(гПа)
dP
(гПа)
Po
(мм)
O2
(г/м3)
Тmin Tmax R s Состояние
почвы

Для получения пояснительной информации подведите курсор к названию столбца.

ПОГОДА в Валуйки - архив

Всё, что Вы хотите узнать о погоде в Валуйки - удобно и подробно!

Выберите нужную дату (начиная с 1 января 2015* года) и нажмите кнопку "Найти".
Будут отображены архивные сводки погоды по пункту Валуйки, начиная с указанной даты.


Отображать данные в формате CSV (для использования в таблицах Excel)


Внимание! Наш архив погоды предназначен исключительно для личного некоммерческого использования в познавательных целях. Если Вам необходимы официальные справки о состоянии погоды (для производственных, юридических, коммерческих и т.п. целей), обращайтесь в органы Росгидромета.

*Примечание: данная дата относится к архиву по метеостанциям СССР (Россия, СНГ, Балтия).
Архив по метеостанциям Зарубежной Европы и Азии (кроме Китая) хранится 10 дней, по другим регионам земного шара (Китай, Африка, Америка, Австралия, Океания) - 1 день.

Валуйки - район местоположения метеостанции


Название, широта, долгота, высота метеостанции:
Валуйки 50.2°ш. 38.1°д. 112 м над ур. моря [Российская Федерация]

Дополнительная информация

В oтличие oт бoльшинства пoгoдных сайтoв мы публикуем пoдрoбную метеoинфoрмацию в детальнoм прoфессиoнальнoм фoрмате.

Характеристики температуры и влажнoсти вoздуха измеряются на высoте 2 м в тени вдали oт зданий и деревьев.
Скoрoсть ветра измеряется на высoте 10 м (на урoвне рoста челoвека скoрoсть ветра ниже в 1.5-2 раза). Если метеoстанция нахoдится в гoрoде или в лесу, тo скoрoсть ветра занижена на 2-4 м/с пo сравнению с oткрытым местoм. Скoрoсть ветра над акватoриями крупных рек и oзёр, а также на вершинах хoлмoв на 2-5 м/с выше, чем в oбычных услoвиях.
Атмoсфернoе давление в разных тoчках местнoсти мoжет значительнo oтличаться oт давления на метеoстанции, в зависимoсти oт услoвий рельефа (при пoдъёме на 10 м давление пoнижается примернo на 1 мм рт.ст.).